#timestamp,LO_Frequency,Hit,StdDev 
1539972015.1,286047016.5,N
1539972016.0,286047016.5,N
1539972035.8,286047014.8,N
1539972055.6,286047016.2,N
1539972075.5,286047017.0,Y
1539972095.3,286047007.2,P
1539972115.1,286047007.2,P
1539972135.9,286047007.1,P
1539972155.7,286047006.3,Y
1539972175.6,286047000.8,P
1539972195.4,286047000.7,N
1539972215.2,286046998.6,N
1539972235.1,286046996.8,N
1539972236.0,286046996.8,N
1539972255.8,286046997.7,N
1539972275.7,286046996.6,N
1539972295.5,286046999.2,N
1539972315.3,286046998.7,N
1539972335.2,286046998.7,N
1539972355.0,286047000.4,N
1539972355.9,286047000.4,N
1539972375.7,286047000.7,N
1539972395.6,286047002.6,N
1539972415.4,286047002.5,N
1539972435.3,286047002.0,N
1539972455.1,286047002.4,N
1539972475.8,286047002.7,N
1539972495.7,286046999.8,N
1539972515.5,286047000.0,N
1539972535.3,286047000.1,N
1539972555.2,286047000.4,N
1539972575.0,286047001.2,N
1539972575.9,286047001.2,N
1539972595.8,286046998.8,N
1539972615.6,286046999.0,N
1539972635.4,286046999.6,N
1539972655.3,286046997.0,N
1539972675.1,286046997.4,N
1539972695.9,286046998.8,N
1539972715.7,286046998.9,N
1539972735.5,286046998.5,N
1539972755.4,286046998.2,N
1539972775.2,286046998.5,N
1539972795.0,286046998.6,N
1539972795.9,286046998.6,N
1539972815.8,286046999.5,N
1539972835.6,286046999.3,N
1539972855.5,286046996.7,N
1539972875.3,286046997.1,N
1539972895.1,286046996.5,N
1539972915.9,286046999.6,N
1539972935.7,286046998.8,N
1539972955.5,286046998.4,N
1539972975.4,286046998.7,N
1539972995.2,286047001.0,N
1539973015.1,286046996.9,N
1539973016.0,286046996.9,N
1539973035.8,286046997.1,N
1539973055.6,286046993.8,Y
1539973075.5,286046998.0,P
1539973095.3,286046996.8,P
1539973115.1,286046997.9,N
1539973135.9,286046995.3,Y
1539973155.7,286046997.4,P
1539973175.6,286046993.8,P
1539973195.4,286046995.2,N
1539973215.2,286046995.6,N
1539973235.1,286046996.9,N
1539973236.0,286046996.9,N
1539973255.8,286046999.6,N
1539973275.7,286046997.5,N
1539973295.5,286046992.6,Y
1539973315.3,286046994.2,P
1539973335.2,286046995.0,P
1539973355.0,286046997.1,N
1539973355.9,286046997.1,N
1539973375.7,286046997.8,N
1539973395.6,286046997.6,N
1539973415.4,286046999.3,N
1539973435.3,286047000.2,N
1539973455.1,286047000.0,N
1539973456.0,286047000.0,N
1539973475.8,286047002.2,N
1539973495.7,286047001.8,N
1539973515.5,286047001.7,N
1539973535.3,286047002.5,N
1539973555.2,286046999.6,N
1539973575.0,286046996.0,N
1539973575.9,286046996.0,N
1539973595.8,286046992.1,Y
1539973615.6,286046992.5,P
1539973635.4,286046993.2,N
1539973655.3,286046991.2,P
1539973675.1,286046988.3,Y
1539973695.9,286046990.3,P
1539973715.7,286046993.2,P
1539973735.5,286046992.7,P
1539973755.4,286046990.7,Y
1539973775.2,286047000.2,P
1539973795.0,286047001.0,N
1539973795.9,286047001.0,N
1539973815.8,286046999.2,N
1539973835.6,286046998.5,N
1539973855.5,286046998.1,N
1539973875.3,286046999.2,N
1539973895.1,286046996.7,N
1539973915.9,286046995.6,N
1539973935.7,286046995.0,N
1539973955.5,286046995.6,N
1539973975.4,286046997.4,N
1539973995.2,286046995.9,N
1539974015.0,286046994.4,N
1539974016.0,286046994.4,N
1539974035.8,286046993.6,N
1539974055.6,286046991.8,Y
1539974075.5,286046993.5,P
1539974095.3,286046997.4,N
1539974115.1,286046996.9,N
1539974135.9,286046997.7,N
1539974155.7,286046997.1,N
1539974175.6,286047002.5,N
1539974195.4,286047004.8,N
1539974215.2,286047004.8,N
1539974235.1,286047004.7,N
1539974236.0,286047004.7,N
1539974255.8,286047005.8,N
1539974275.6,286047002.9,N
1539974295.5,286046999.7,N
1539974315.3,286047002.8,N
1539974335.1,286047004.7,N
1539974355.9,286047006.3,N
1539974375.7,286047011.9,Y
1539974395.6,286047007.1,P
1539974415.4,286047006.3,N
1539974435.2,286047003.2,N
1539974455.1,286047001.3,N
1539974456.0,286047001.3,N
1539974475.8,286047006.0,N
1539974495.7,286047006.5,N
1539974515.5,286047007.1,N
1539974535.3,286047005.8,N
1539974555.2,286047002.9,N
1539974575.9,286047004.4,N
1539974595.7,286047005.5,N
1539974615.6,286047006.9,Y
1539974635.4,286047003.8,P
1539974655.3,286047002.8,P
1539974675.1,286047001.2,N
1539974676.0,286047001.2,N
1539974695.8,286047001.9,N
1539974715.7,286047000.6,N
1539974735.5,286046996.6,N
1539974755.3,286046995.0,N
1539974775.2,286046999.5,N
1539974795.0,286046995.6,N
1539974795.9,286046995.6,N
1539974815.8,286046999.2,N
1539974835.6,286046996.3,N
1539974855.4,286046995.2,N
1539974875.3,286046995.8,N
1539974895.1,286046993.5,N
1539974915.8,286046994.5,N
1539974935.7,286046993.4,N
1539974955.5,286046993.4,N
1539974975.4,286046993.6,N
1539974995.2,286046994.6,N
1539975015.0,286046994.5,N
1539975015.9,286046994.5,N
1539975035.8,286046993.8,N
1539975055.6,286047001.1,N
1539975075.4,286046997.1,N
1539975095.3,286046995.7,N
1539975115.1,286046996.4,N
1539975135.9,286046994.0,N
1539975155.7,286046995.3,N
1539975175.5,286046996.9,N
1539975195.4,286046999.5,N
1539975215.2,286046999.9,N
1539975235.0,286047003.6,N
1539975235.9,286047003.6,N
1539975255.8,286047004.6,N
1539975275.6,286047004.8,N
1539975295.5,286047006.1,N
1539975315.3,286047009.0,N
1539975335.1,286047010.3,N
1539975355.9,286047010.4,N
1539975375.7,286047010.8,N
1539975395.5,286047008.3,N
1539975415.4,286047009.0,N
1539975435.2,286047006.6,N
1539975455.1,286047007.7,N
1539975456.0,286047007.7,N
1539975475.8,286047009.2,N
1539975495.6,286047010.3,N
1539975515.5,286047010.3,N
1539975535.3,286047009.3,N
1539975555.1,286047009.9,N
1539975575.9,286047007.3,N
1539975595.7,286047006.6,N
